Wind_Speed
23 22 21 21 20 20 21 21 20 19 19 20 19 19 19 18 19 18 18 17 17 17 16 16 16 16 15 15 16 16 16 15 15 15 15 15 14 13 13 13 13 13 12
23 22 22 22 22 21 21 21 21 20 20 20 20 20 20 20 19 19 18 17 17 17 16 16 16 16 16 16 17 16 16 16 17 17 16 16 15 14 14 14 14 14 13
23 23 23 23 23 22 23 23 22 22 22 22 21 21 20 20 20 19 18 17 17 18 17 17 17 17 17 17 17 17 17 18 18 17 17 16 14 14 14 14 14 14 13
23 23 23 23 24 24 23 23 24 23 23 22 22 21 21 21 20 19 18 18 18 18 19 19 19 18 18 17 17 17 18 18 18 18 17 17 16 15 14 14 14 14 14
22 22 22 23 24 24 24 24 23 23 22 22 22 22 21 20 20 20 19 19 19 19 19 19 19 19 18 17 17 17 17 17 18 18 17 17 16 15 14 14 13 14 14
22 22 21 22 23 23 24 23 23 22 22 22 22 22 21 20 20 19 19 19 19 19 19 20 20 19 18 17 17 17 17 17 18 17 17 17 16 15 15 14 14 14 14
22 21 21 22 22 22 22 22 22 22 22 22 22 22 21 20 20 19 18 18 19 19 20 20 20 20 19 19 18 17 17 17 17 17 17 18 17 17 16 16 16 15 15
23 22 22 22 22 21 21 21 22 22 22 23 22 22 22 21 20 20 19 19 19 19 19 20 20 20 20 19 19 18 18 17 17 17 17 18 19 19 18 17 16 16 16
22 21 22 22 22 22 22 22 22 23 23 23 22 22 22 21 20 20 19 19 19 19 20 19 19 20 20 20 20 20 19 17 18 18 18 19 19 20 20 19 18 18 18
23 22 23 23 23 23 22 22 22 23 23 23 23 23 22 21 20 20 20 20 20 20 19 19 19 20 21 21 21 20 20 19 18 19 19 20 20 20 20 20 19 19 19
22 23 23 23 23 23 23 23 23 23 23 23 23 23 23 21 21 21 20 20 20 20 19 18 18 19 20 21 21 21 20 20 20 20 20 20 21 21 22 21 21 20 20
23 23 23 23 23 23 23 22 22 23 23 23 22 22 22 21 21 21 21 20 20 20 19 19 19 19 20 20 20 20 21 21 21 21 21 22 22 22 22 22 21 21 21
25 25 24 23 23 23 23 22 22 23 22 22 21 21 21 22 22 21 21 21 21 20 20 20 20 20 21 21 21 22 21 21 22 22 21 21 22 22 22 22 22 21 21
25 25 24 23 22 22 22 21 21 21 21 21 21 21 21 21 21 22 22 22 22 22 22 21 20 20 21 21 22 22 23 22 21 21 21 21 21 21 22 21 21 21 21
26 24 23 22 22 21 20 20 21 20 20 21 21 21 21 20 21 22 21 21 20 20 21 21 21 21 21 21 22 22 22 21 21 20 21 20 22 22 22 22 21 22 22
26 26 24 23 22 22 21 21 21 21 20 21 21 21 21 21 21 22 21 21 21 21 21 20 20 20 20 20 21 22 22 22 21 21 22 21 22 23 23 23 23 23 23
26 25 24 23 23 23 22 21 21 21 21 21 21 22 21 21 22 21 21 22 22 22 22 22 21 21 21 21 22 22 22 23 23 23 23 23 24 24 24 25 25 25 24
26 25 25 24 24 23 23 22 21 22 21 22 22 22 21 21 20 21 21 21 22 22 22 22 21 21 22 21 21 22 22 23 23 24 24 24 24 24 24 25 25 25 25
25 24 24 24 23 23 24 23 22 22 22 22 22 22 21 21 21 21 21 21 21 22 22 22 22 22 22 22 22 22 21 22 23 23 23 24 24 25 25 25 25 25 25
24 24 24 24 24 24 23 23 23 22 22 22 21 21 21 22 22 22 22 22 22 22 22 22 22 22 22 22 22 22 22 22 22 23 24 25 25 26 26 26 26 25 26
24 24 24 24 23 23 23 24 23 22 22 22 22 21 21 21 22 22 22 22 22 22 22 22 22 22 22 23 23 23 23 23 23 23 24 24 25 26 27 27 27 26 26
25 25 24 24 23 23 22 22 22 21 21 21 21 21 21 22 22 22 22 22 22 22 22 22 22 22 22 22 23 24 25 25 25 25 25 25 25 25 25 26 27 27 27
25 24 24 23 23 22 21 21 21 22 21 21 21 21 22 22 22 22 23 23 23 22 22 22 23 23 24 24 24 25 25 26 26 25 25 25 25 25 25 25 26 26 27
24 24 23 22 22 22 22 22 22 22 22 23 22 23 23 23 23 23 23 24 23 23 23 23 24 25 25 25 26 26 25 25 25 25 24 24 24 24 24 24 25 25 25
23 23 23 23 23 23 23 23 23 23 24 24 24 24 25 25 24 24 24 24 24 25 25 25 26 26 26 26 26 25 25 25 25 25 25 25 25 25 24 24 24 24 24
22 22 22 22 22 22 23 24 25 25 25 25 25 25 24 24 24 25 25 25 25 26 26 26 26 26 26 26 26 27 26 27 26 26 26 26 26 26 26 25 25 25 25
Wind_Direction
279 280 279 280 282 283 285 286 287 288 290 293 294 292 289 288 288 287 285 281 275 274 272 267 266 264 265 265 260 258 259 258 258 257 257 258 260 265 268 272 273 272 272
275 278 280 280 280 280 281 283 285 287 289 291 292 291 289 288 288 285 282 281 275 272 270 266 267 265 265 268 261 258 257 257 257 256 256 258 260 260 263 268 271 271 272
274 277 280 281 278 277 277 279 282 285 287 287 290 291 289 289 287 285 280 277 274 270 268 267 268 268 266 266 262 258 258 256 257 257 259 261 262 259 262 263 267 268 269
274 276 277 278 277 276 276 277 279 282 284 286 289 290 289 288 285 283 280 275 273 270 268 268 267 266 267 264 262 261 260 256 256 256 258 260 258 260 262 262 263 265 266
272 272 275 278 278 277 277 277 277 278 281 285 287 288 287 286 284 284 281 277 274 271 269 266 266 266 264 262 261 260 261 259 258 257 257 255 255 262 262 262 266 266 267
272 273 275 278 278 277 277 278 278 277 280 283 284 285 284 285 285 284 282 277 275 272 269 268 265 265 262 261 259 259 260 260 262 260 255 253 254 259 262 265 267 267 269
275 277 278 278 277 277 278 279 279 277 279 281 281 282 282 282 283 282 281 278 276 272 270 266 264 263 261 261 260 260 260 260 262 261 256 251 252 257 261 266 268 268 271
276 277 279 277 276 276 277 278 278 276 276 279 280 279 280 278 279 279 279 277 277 274 272 269 264 262 261 260 260 262 261 258 261 260 255 253 254 255 258 261 265 267 271
277 280 279 278 276 275 276 277 278 277 276 276 277 277 278 276 275 275 278 278 278 277 273 270 266 262 260 259 261 262 262 260 261 259 255 254 255 256 257 259 263 267 271
281 281 280 279 278 279 280 278 278 278 277 276 274 274 275 274 275 276 277 276 278 278 273 268 266 261 258 258 260 262 263 263 261 257 255 255 256 255 257 260 263 267 270
281 280 279 279 278 277 279 279 278 277 276 276 274 272 271 273 276 276 276 276 276 275 271 268 264 263 261 260 261 262 263 263 261 257 257 258 258 257 257 259 263 267 272
280 278 279 279 278 277 277 278 277 276 276 274 272 270 271 273 274 275 274 273 273 270 267 266 265 264 263 263 263 264 264 263 263 261 259 260 258 258 257 259 263 268 272
279 278 278 279 277 277 275 277 275 275 275 274 273 272 272 272 273 274 274 271 269 268 267 267 267 267 267 264 261 263 264 263 264 263 262 261 257 256 256 259 263 268 271
279 278 277 279 279 276 274 275 275 275 274 273 272 272 273 273 273 274 273 271 269 268 266 266 266 267 266 263 262 263 263 263 262 262 262 260 259 258 259 260 264 267 271
279 279 278 277 278 277 276 275 275 275 274 273 273 272 274 275 273 273 270 269 270 269 268 268 266 266 266 264 262 262 261 260 259 260 262 263 260 260 260 262 265 267 270
277 279 278 277 278 278 278 277 276 275 274 273 274 274 273 273 272 271 270 270 269 267 269 269 269 268 266 263 262 263 261 259 261 262 262 263 264 263 262 264 266 268 270
275 276 275 276 277 276 276 278 279 278 277 275 274 274 273 273 272 271 269 270 269 269 270 270 267 266 265 265 263 262 261 261 262 264 264 264 265 266 266 265 266 268 270
275 273 271 273 274 274 275 277 278 279 277 276 276 273 271 271 271 271 271 269 268 269 269 268 267 264 264 265 264 263 262 261 262 264 266 267 267 267 267 267 267 268 270
275 272 271 271 272 273 275 275 276 276 274 274 274 270 268 268 269 270 272 271 269 266 267 268 266 265 264 264 265 264 263 263 264 265 265 266 266 266 266 267 266 268 270
273 272 271 270 271 272 273 274 275 274 273 272 272 270 268 266 266 268 268 269 269 268 267 265 265 265 264 265 265 264 264 266 267 267 267 267 266 265 265 266 267 268 270
269 272 271 270 270 272 274 275 275 274 272 272 271 270 269 267 267 267 268 268 268 268 267 266 266 265 265 264 265 265 266 267 268 269 269 269 267 266 266 266 267 269 270
267 269 271 270 270 272 273 272 272 272 272 272 271 270 269 269 268 268 269 268 269 267 266 266 266 266 267 267 266 266 266 268 269 270 271 269 267 267 266 266 268 269 270
267 267 268 269 270 270 269 270 270 272 272 272 272 271 270 269 268 269 269 269 269 269 269 268 269 269 269 269 269 270 268 267 268 269 269 268 268 267 268 269 268 268 268
267 266 266 269 270 270 269 269 269 270 273 273 273 273 273 270 270 269 269 269 270 271 272 272 272 271 270 270 270 271 270 268 266 266 267 268 268 268 267 267 268 268 268
268 266 266 268 268 270 269 269 270 272 273 273 275 275 274 271 269 270 271 272 271 272 273 273 273 272 270 270 270 270 270 269 267 268 268 267 267 266 266 266 266 266 269
269 269 269 271 270 271 272 271 270 272 271 272 276 275 275 273 272 272 272 273 273 273 274 274 274 273 272 270 270 270 269 270 270 270 268 268 267 266 266 266 265 266 267
Height
5860 5859 5859 5859 5859 5859 5858 5857 5856 5855 5854 5853 5852 5851 5850 5849 5849 5848 5848 5847 5847 5847 5848 5848 5849 5850 5851 5852 5853 5853 5854 5855 5856 5857 5858 5859 5859 5860 5861 5861 5861 5862 5862
5855 5855 5854 5854 5854 5854 5853 5853 5852 5851 5850 5849 5848 5847 5846 5845 5844 5844 5844 5844 5843 5844 5844 5845 5846 5847 5848 5848 5849 5850 5851 5852 5853 5853 5854 5855 5856 5856 5857 5857 5858 5858 5859
5850 5850 5849 5849 5849 5849 5849 5848 5847 5847 5846 5845 5843 5842 5842 5841 5841 5841 5840 5840 5840 5840 5840 5841 5842 5843 5844 5844 5845 5846 5847 5848 5849 5849 5850 5851 5852 5853 5853 5854 5854 5855 5855
5845 5845 5844 5844 5844 5844 5844 5843 5843 5842 5841 5840 5839 5838 5837 5837 5836 5836 5835 5835 5835 5836 5836 5837 5838 5839 5840 5840 5841 5842 5842 5843 5844 5845 5846 5847 5848 5849 5849 5850 5850 5851 5851
5839 5839 5839 5839 5839 5838 5838 5838 5837 5837 5836 5835 5834 5833 5833 5832 5831 5831 5831 5831 5831 5831 5832 5833 5833 5834 5835 5836 5836 5837 5838 5839 5840 5841 5842 5843 5844 5845 5846 5847 5847 5847 5848
5834 5833 5833 5834 5834 5833 5833 5833 5832 5832 5832 5831 5830 5829 5828 5827 5827 5826 5826 5826 5826 5827 5827 5828 5829 5830 5830 5831 5832 5833 5834 5834 5835 5836 5838 5839 5840 5841 5842 5843 5844 5844 5844
5829 5829 5828 5829 5829 5829 5828 5828 5827 5827 5826 5826 5825 5824 5823 5823 5822 5822 5822 5822 5822 5822 5823 5823 5824 5825 5825 5826 5828 5829 5830 5830 5831 5832 5833 5834 5836 5837 5838 5839 5840 5840 5841
5824 5824 5824 5823 5823 5823 5823 5822 5822 5822 5821 5820 5820 5819 5818 5818 5818 5817 5817 5817 5817 5818 5818 5818 5819 5820 5820 5822 5823 5824 5825 5826 5826 5827 5828 5830 5831 5833 5834 5835 5835 5836 5837
5818 5819 5819 5818 5818 5818 5818 5817 5817 5816 5816 5815 5815 5814 5813 5813 5813 5813 5813 5813 5813 5813 5813 5813 5814 5815 5816 5817 5818 5820 5820 5821 5821 5822 5823 5825 5826 5828 5829 5830 5831 5832 5832
5814 5815 5814 5814 5813 5812 5812 5812 5811 5810 5810 5809 5809 5809 5809 5808 5808 5808 5808 5808 5809 5809 5809 5809 5809 5810 5811 5812 5813 5814 5815 5816 5816 5817 5818 5820 5821 5823 5824 5825 5826 5826 5827
5809 5809 5809 5808 5807 5807 5806 5806 5805 5805 5804 5804 5803 5803 5803 5803 5803 5803 5803 5803 5803 5803 5804 5804 5804 5805 5806 5807 5808 5809 5809 5810 5811 5812 5813 5815 5816 5817 5819 5820 5820 5821 5821
5804 5803 5803 5802 5801 5801 5800 5799 5799 5799 5798 5798 5798 5798 5798 5798 5798 5798 5798 5798 5798 5798 5799 5799 5800 5800 5801 5802 5803 5804 5804 5805 5806 5807 5808 5809 5811 5812 5813 5814 5815 5816 5816
5799 5798 5798 5796 5795 5795 5794 5793 5793 5793 5793 5792 5792 5792 5792 5792 5792 5792 5793 5793 5793 5793 5794 5794 5795 5795 5796 5796 5798 5798 5799 5800 5801 5802 5803 5804 5805 5806 5807 5808 5809 5810 5810
5793 5793 5792 5791 5790 5789 5788 5788 5788 5787 5787 5787 5787 5787 5787 5787 5787 5787 5787 5787 5787 5788 5788 5789 5789 5790 5790 5791 5792 5793 5793 5794 5795 5796 5797 5798 5799 5800 5802 5802 5803 5804 5804
5787 5787 5786 5785 5785 5784 5783 5782 5782 5782 5781 5781 5781 5781 5781 5781 5781 5781 5781 5782 5782 5782 5782 5783 5783 5784 5784 5785 5786 5787 5787 5788 5789 5791 5792 5792 5793 5794 5795 5796 5797 5798 5798
5781 5781 5780 5780 5779 5779 5778 5777 5777 5776 5776 5776 5775 5775 5775 5775 5775 5776 5776 5776 5776 5776 5777 5777 5778 5778 5779 5779 5780 5781 5781 5782 5784 5785 5785 5786 5787 5788 5789 5790 5791 5791 5792
5775 5775 5774 5774 5774 5773 5773 5772 5771 5771 5770 5770 5770 5770 5769 5770 5770 5770 5770 5770 5770 5771 5771 5772 5772 5772 5773 5773 5774 5774 5775 5776 5777 5778 5779 5780 5781 5781 5782 5783 5784 5784 5785
5768 5768 5768 5768 5768 5767 5767 5766 5766 5765 5765 5764 5764 5764 5764 5763 5763 5764 5764 5764 5764 5765 5765 5765 5766 5767 5767 5767 5768 5768 5769 5769 5771 5771 5772 5773 5774 5774 5775 5776 5776 5777 5777
5761 5761 5761 5761 5761 5761 5761 5760 5760 5759 5759 5758 5758 5758 5758 5758 5758 5758 5758 5758 5759 5759 5759 5760 5760 5761 5761 5761 5762 5762 5763 5763 5764 5764 5765 5765 5766 5767 5768 5768 5769 5769 5770
5755 5755 5755 5755 5755 5754 5754 5754 5754 5753 5753 5752 5752 5751 5752 5752 5752 5752 5752 5752 5752 5753 5753 5753 5754 5754 5755 5755 5755 5756 5756 5757 5757 5757 5757 5758 5758 5759 5759 5760 5761 5762 5762
5748 5748 5748 5748 5748 5748 5748 5747 5747 5747 5746 5746 5746 5745 5745 5745 5746 5746 5746 5746 5746 5746 5747 5747 5747 5747 5748 5749 5749 5749 5749 5750 5750 5750 5750 5750 5751 5751 5752 5752 5753 5754 5754
5742 5742 5742 5741 5741 5741 5741 5740 5740 5740 5740 5740 5739 5739 5739 5739 5739 5739 5739 5739 5740 5740 5740 5740 5741 5741 5741 5741 5742 5742 5742 5742 5743 5743 5743 5743 5743 5743 5744 5744 5745 5746 5746
5735 5735 5735 5735 5735 5734 5734 5734 5734 5734 5734 5733 5733 5733 5733 5733 5733 5733 5733 5733 5733 5733 5733 5734 5734 5734 5734 5734 5734 5734 5734 5734 5734 5735 5735 5735 5735 5735 5736 5737 5737 5738 5738
5728 5728 5728 5728 5728 5727 5727 5727 5727 5726 5727 5727 5726 5726 5726 5726 5726 5725 5725 5726 5726 5726 5726 5726 5726 5726 5726 5726 5726 5726 5726 5726 5726 5727 5727 5727 5727 5728 5729 5729 5730 5730 5730
5721 5721 5721 5721 5721 5720 5720 5720 5720 5720 5720 5720 5719 5719 5718 5718 5718 5718 5718 5718 5718 5718 5719 5718 5718 5718 5718 5718 5718 5718 5719 5719 5719 5719 5719 5720 5720 5721 5721 5722 5722 5723 5723
5714 5714 5714 5714 5714 5713 5713 5713 5713 5713 5712 5712 5711 5711 5711 5710 5710 5710 5710 5710 5711 5710 5710 5710 5710 5710 5710 5710 5710 5711 5711 5711 5711 5711 5711 5712 5712 5713 5714 5714 5715 5715 5716